Weather History for Corpus Christi, TX

Change the Weather History Date:

Friday, February 1, 2013

  Actual Average Record
Temperature  
Mean Temperature 63 °F 58 °F  
Max Temperature 75 °F 68 °F 87 °F (1963)
Min Temperature 50 °F 48 °F 18 °F (1951)
Degree Days  
Heating Degree Days 2 8  
Month to date heating degree days 2 8  
Since 1 July heating degree days 385 635  
Cooling Degree Days 0 1  
Month to date cooling degree days 0 1  
Year to date cooling degree days 67 31  
Growing Degree Days 13 (Base 50)    
Moisture  
Dew Point 45 °F    
Average Humidity 55    
Maximum Humidity 83    
Minimum Humidity 27    
Precipitation  
Precipitation 0.00 in 0.06 in 1.24 in (1895)
Month to date precipitation 0.00 0.06  
Year to date precipitation 1.25 1.60  
Snow  
Snow 0.00 in - - ()
Month to date snowfall 0.0  
Since 1 July snowfall 0.0  
Snow Depth 0.00 in    
Sea Level Pressure  
Sea Level Pressure 30.27 in    
Wind  
Wind Speed 9 mph (SE)    
Max Wind Speed 21 mph    
Max Gust Speed 30 mph    
Visibility 10 miles    
Events      
T = Trace of Precipitation, MM = Missing Value Source: NWS Daily Summary

Daily Weather History Graph

Daily Weather History Graph

Search for Another Location

Airport:

Trip Planner

Search our weather history database for the weather conditions in past years. The results will help you decide how hot, cold, wet, or windy it might be!

Date:

Astronomy

Feb. 01, 2013 Rise Set
Actual Time 7:16 AM CST 6:11 PM CST
Civil Twilight 6:52 AM CST 6:35 PM CST
Nautical Twilight 6:24 AM CST 7:03 PM CST
Astronomical Twilight 5:56 AM CST 7:31 PM CST
Moon 11:41 PM CST (2/1) 10:25 AM CST (2/1)
Length of Visible Light 11h 43m
Length of Day
10h 54m
Waning Gibbous, 70% of the Moon is Illuminated
Feb 1
Waning Gibbous
Feb 3
Last Quarter
Feb 10
New
Feb 17
First Quarter
Feb 25
Full

Hourly Weather History & Observations

Time (CST) Temp. Dew Point Humidity Pressure Visibility Wind Dir Wind Speed Gust Speed Precip Events Conditions
12:51 AM 55.0 °F 44.1 °F 67% 30.29 in 10.0 mi SE 6.9 mph - N/A   Clear
1:51 AM 57.9 °F 45.0 °F 62% 30.28 in 10.0 mi SSE 6.9 mph - N/A   Clear
2:51 AM 55.0 °F 45.0 °F 69% 30.28 in 10.0 mi SSE 5.8 mph - N/A   Clear
3:51 AM 52.0 °F 44.1 °F 74% 30.29 in 10.0 mi SSE 4.6 mph - N/A   Clear
4:51 AM 54.0 °F 48.0 °F 80% 30.29 in 10.0 mi ESE 4.6 mph - N/A   Clear
5:51 AM 54.0 °F 46.0 °F 75% 30.29 in 10.0 mi SE 6.9 mph - N/A   Clear
6:51 AM 54.0 °F 46.0 °F 75% 30.31 in 10.0 mi SE 6.9 mph - N/A   Clear
7:51 AM 54.0 °F 45.0 °F 72% 30.31 in 10.0 mi SSE 4.6 mph - N/A   Clear
8:51 AM 62.1 °F 50.0 °F 65% 30.34 in 10.0 mi SSE 4.6 mph - N/A   Clear
9:51 AM 69.1 °F 48.0 °F 47% 30.35 in 10.0 mi SE 11.5 mph - N/A   Clear
10:51 AM 72.0 °F 44.1 °F 37% 30.34 in 10.0 mi SSE 9.2 mph - N/A   Clear
11:51 AM 73.9 °F 41.0 °F 30% 30.32 in 10.0 mi SE 12.7 mph - N/A   Partly Cloudy
12:51 PM 73.9 °F 42.1 °F 32% 30.30 in 10.0 mi SE 16.1 mph 21.9 mph N/A   Partly Cloudy
1:51 PM 75.0 °F 39.9 °F 28% 30.27 in 10.0 mi SE 20.7 mph 26.5 mph N/A   Partly Cloudy
2:51 PM 73.9 °F 39.9 °F 29% 30.24 in 10.0 mi SE 17.3 mph - N/A   Partly Cloudy
3:51 PM 73.0 °F 43.0 °F 34% 30.24 in 10.0 mi ESE 15.0 mph 20.7 mph N/A   Partly Cloudy
4:51 PM 70.0 °F 44.1 °F 39% 30.23 in 10.0 mi ESE 16.1 mph 20.7 mph N/A   Partly Cloudy
5:51 PM 66.9 °F 44.1 °F 44% 30.22 in 10.0 mi SE 15.0 mph - N/A   Partly Cloudy
6:51 PM 63.0 °F 45.0 °F 52% 30.23 in 10.0 mi SE 8.1 mph - N/A   Partly Cloudy
7:51 PM 60.8 °F 46.4 °F 59% 30.24 in 10.0 mi SE 6.9 mph - N/A   Partly Cloudy
8:51 PM 59.0 °F 46.9 °F 64% 30.24 in 10.0 mi ESE 8.1 mph - N/A   Partly Cloudy
9:51 PM 57.9 °F 48.0 °F 70% 30.24 in 10.0 mi ESE 5.8 mph - N/A   Scattered Clouds
10:51 PM 57.9 °F 46.0 °F 65% 30.23 in 10.0 mi SE 6.9 mph - N/A   Mostly Cloudy
11:51 PM 60.1 °F 50.0 °F 69% 30.22 in 10.0 mi SE 5.8 mph - N/A   Mostly Cloudy